{"data":{"norad_id":67025,"epoch":"2026-05-25T00:38:34.803744Z","epoch_age_seconds":73014,"freshness":"FRESH","line1":"1 67025U 25293Y   26145.02679171  .00000434  00000+0  44135-4 0  9993","line2":"2 67025  70.0005 261.9274 0003339 266.6318  93.4459 14.98335870 26320","mean_motion":14.9833587,"eccentricity":0.0003339,"inclination_deg":70.0005,"raan_deg":261.9274,"arg_perigee_deg":266.6318,"mean_anomaly_deg":93.4459,"bstar":4.4135e-5,"rev_number":2632,"period_min":96.106622609255,"perigee_km":569.71707516771,"apogee_km":574.35840185809,"semimajor_km":6950.1747385129,"source":"CELESTRAK","updated_at":"2026-05-25T13:38:21.434341Z"}}